星链-34379 (STARLINK-34379)

导读

STARLINK-34379是美国SpaceX公司星链(Starlink)星座的低轨通信卫星,于2025年6月8日发射升空。作为星链大规模组网的组成部分,它延续了星链卫星的设计思路,采用平板构型与氪工质霍尔推进器,配备光学星间链路和自主避撞系统,旨在为全球尤其是偏远地区提供低延迟、高速宽带互联网服务,服役寿命末期将主动离轨坠入大气层焚毁,减少空间碎片影响。

基本信息
目录编号:
64302
目录名称:
STARLINK-34379
国际标识:
2025-123M
轨道中心:
EARTH
卫星名称:
星链-34379
卫星全名:
星链-34379 (STARLINK-34379)
卫星状态:
在轨 (已飞行454 天)
发射日期:
2025-06-08 UTC
国别 :
美国 (US)
星等 :
--
轨道信息
数据来源 国际轨道数据
星历时间: 2026-09-04T17:36:20+0800
1天前
查看轨道信息
半长轴: 6815.154km
偏心率: 0.0003275
轨道倾角: 70.001°
近地点辐角 270.258°
升交点赤经 41.869°
平近点角 89.823°
近地点: 434.785km
远地点: 439.249km
周期: 93.320分钟
每日圈数: 15.430829
详细信息
固有亮度:
5
最大亮度:
2.5
卫星平台:
Starlink V1.0
覆盖范围:
全球
运营商:
太空探索技术公司
运营商所在国:
美国
制造商(研发单位):
太空探索技术公司
制造商所在国:
美国
使用方式:
暂无
卫星简介
Starlink 计划是 SpaceX 推出的全球卫星互联网项目,通过发射低轨道卫星,为全球尤其是偏远地区提供高速、低延迟的互联网服务。自 2019 年起,Starlink 已部署数千颗卫星,旨在缩小全球数字鸿沟,推动互联网普及。该项目还为军事、航空等行业提供通信支持,带来广泛经济效益。
2D轨道图
3D轨道图
轨道高度分析图
轨道倾角分析图
轨道综合分析图
查看轨道综合分析图
交会数据列表
事件ID 空间交会对象 最接近时刻(TCA) 交会距离 交会风险概率(CRP) 交会风险指数(CRI) 操作
CDM_260903-162205-389706-430221
2026-09-03T
16:22:26+0000
1.362 km
极远距离
8.471325E-6 低风险 0.54
CDM_260906-204704-453906-430222
2026-09-06T
20:47:29+0000
2.541 km
极远距离
7.838639E-7 极低风险 0.33